Location: Krakow
(50.0830°N, 19.9170°E)
Time: 11:20:00
(UTC+01:00)

Transit 2A - Pass Details

Date: 10 February 2023
Orbit: 591 x 964 km, 66.7° (Epoch: 21 March)

Event Time Altitude Azimuth Distance (km) Brightness Sun altitude
Enters shadow 23:46:06 - 321° (NW) 3,531 9.9 -54.1°
Rises 23:46:10 0° 321° (NW) 3,502 - -54.1°
Reaches altitude 10° 23:48:38 10° 319° (NW) 2,602 - -54.1°
Maximum altitude 23:54:41 64° 240° (WSW) 1,049 - -54.1°
Drops below altitude 10° 00:00:57 10° 160° (SSE) 2,695 - -54.1°
Sets 00:03:33 0° 158° (SSE) 3,635 - -54.1°
